Weather History for Frenchville, ME

Change the Weather History Date:

Saturday, March 2, 2013

  Actual Average Record
Temperature  
Mean Temperature 31 °F 18 °F  
Max Temperature 34 °F 27 °F 45 °F (1997)
Min Temperature 27 °F 10 °F -17 °F (2001)
Degree Days  
Heating Degree Days 34    
Month to date heating degree days 70  
Since 1 July heating degree days 6560  
Cooling Degree Days 0    
Month to date cooling degree days 0  
Year to date cooling degree days 0  
Moisture  
Dew Point 27 °F    
Average Humidity 91    
Maximum Humidity 93    
Minimum Humidity 81    
Precipitation  
Precipitation 0.03 in 0.03 in 0.80 in (1997)
Month to date precipitation 0.03 0.06  
Year to date precipitation 2.25 2.63  
Sea Level Pressure  
Sea Level Pressure 29.59 in    
Wind  
Wind Speed 14 mph (North)    
Max Wind Speed 21 mph    
Max Gust Speed 25 mph    
Visibility 3 miles    
Events Fog , Snow    
T = Trace of Precipitation, MM = Missing Value Source: NWS Daily Summary

Daily Weather History Graph

Daily Weather History Graph

Search for Another Location

Airport:

Trip Planner

Search our weather history database for the weather conditions in past years. The results will help you decide how hot, cold, wet, or windy it might be!

Date:

Astronomy

Mar. 02, 2013 Rise Set
Actual Time 6:11 AM EST 5:20 PM EST
Civil Twilight 5:40 AM EST 5:50 PM EST
Nautical Twilight 5:05 AM EST 6:26 PM EST
Astronomical Twilight 4:29 AM EST 7:02 PM EST
Moon 11:21 PM EST (3/2) 8:13 AM EST (3/2)
Length of Visible Light 12h 10m
Length of Day
11h 09m
Waning Gibbous, 74% of the Moon is Illuminated
Mar 2
Waning Gibbous
Mar 4
Last Quarter
Mar 11
New
Mar 19
First Quarter
Mar 27
Full

Hourly Weather History & Observations

Time (EST) Temp. Windchill Dew Point Humidity Pressure Visibility Wind Dir Wind Speed Gust Speed Precip Events Conditions
12:27 AM 26.6 °F 14.3 °F 24.8 °F 93% 29.58 in 2.5 mi North 16.1 mph - 0.00 in Snow Light Snow
12:41 AM 26.6 °F 14.7 °F 24.8 °F 93% 29.58 in 2.0 mi North 15.0 mph 23.0 mph 0.00 in Snow Light Snow
12:47 AM 26.6 °F 15.2 °F 24.8 °F 93% 29.58 in 1.5 mi North 13.8 mph - 0.00 in Snow Light Snow
12:48 AM 26.6 °F 14.3 °F 24.8 °F 93% 29.58 in 1.5 mi North 16.1 mph - N/A Snow Light Snow
12:56 AM 26.6 °F 15.2 °F 24.8 °F 93% 29.58 in 1.0 mi North 13.8 mph - 0.00 in Snow Light Snow
1:01 AM 26.6 °F 14.3 °F 24.8 °F 93% 29.57 in 0.8 mi North 16.1 mph - 0.00 in Snow Light Snow
1:12 AM 26.6 °F 15.2 °F 24.8 °F 93% 29.57 in 1.0 mi North 13.8 mph - N/A Snow Light Snow
1:53 AM 27.0 °F 15.6 °F 25.0 °F 92% 29.60 in 0.8 mi North 13.8 mph - 0.01 in Snow Light Snow
1:58 AM 26.6 °F 15.2 °F 24.8 °F 93% 29.57 in 1.0 mi North 13.8 mph - 0.00 in Snow Light Snow
2:09 AM 26.6 °F 15.2 °F 24.8 °F 93% 29.57 in 1.5 mi North 13.8 mph 21.9 mph 0.00 in Snow Light Snow
2:21 AM 26.6 °F 14.3 °F 24.8 °F 93% 29.56 in 1.8 mi North 16.1 mph 20.7 mph N/A Snow Light Snow
2:33 AM 26.6 °F 15.2 °F 24.8 °F 93% 29.56 in 1.5 mi North 13.8 mph - 0.00 in Snow Light Snow
2:41 AM 26.6 °F 14.7 °F 24.8 °F 93% 29.57 in 1.0 mi North 15.0 mph - 0.00 in Snow Light Snow
2:50 AM 26.6 °F 15.2 °F 24.8 °F 93% 29.56 in 1.8 mi North 13.8 mph 21.9 mph 0.00 in Snow Light Snow
2:53 AM 27.0 °F 15.2 °F 24.1 °F 89% 29.59 in 2.0 mi North 15.0 mph - 0.00 in Snow Light Snow
3:07 AM 26.6 °F 15.2 °F 24.8 °F 93% 29.56 in 1.8 mi North 13.8 mph - 0.00 in Snow Light Snow
3:29 AM 26.6 °F 13.8 °F 24.8 °F 93% 29.56 in 1.2 mi North 17.3 mph 21.9 mph 0.00 in Snow Light Snow
3:38 AM 26.6 °F 14.7 °F 24.8 °F 93% 29.56 in 0.8 mi North 15.0 mph 21.9 mph 0.00 in Snow Light Snow
3:53 AM 27.0 °F 15.2 °F 25.0 °F 92% 29.59 in 0.8 mi North 15.0 mph - 0.00 in Snow Light Snow
4:32 AM 26.6 °F 14.7 °F 24.8 °F 93% 29.56 in 1.0 mi North 15.0 mph 23.0 mph 0.00 in Snow Light Snow
4:53 AM 27.0 °F 14.7 °F 25.0 °F 92% 29.59 in 1.0 mi North 16.1 mph - 0.01 in Snow Light Snow
5:00 AM 26.6 °F 15.2 °F 24.8 °F 93% 29.56 in 1.5 mi North 13.8 mph 21.9 mph 0.00 in Snow Light Snow
5:02 AM 26.6 °F 14.7 °F 24.8 °F 93% 29.56 in 2.0 mi North 15.0 mph 21.9 mph 0.00 in Snow Light Snow
5:17 AM 26.6 °F 14.3 °F 24.8 °F 93% 29.56 in 1.8 mi North 16.1 mph - 0.00 in Snow Light Snow
5:24 AM 26.6 °F 14.7 °F 24.8 °F 93% 29.57 in 1.2 mi North 15.0 mph - 0.00 in Snow Light Snow
5:38 AM 26.6 °F 14.7 °F 24.8 °F 93% 29.57 in 1.5 mi North 15.0 mph 21.9 mph 0.00 in Snow Light Snow
5:53 AM 27.0 °F 15.6 °F 25.0 °F 92% 29.60 in 1.2 mi North 13.8 mph - 0.00 in Snow Light Snow
5:59 AM 26.6 °F 15.2 °F 24.8 °F 93% 29.57 in 1.8 mi North 13.8 mph - N/A Snow Light Snow
6:09 AM 26.6 °F 15.2 °F 24.8 °F 93% 29.57 in 1.2 mi North 13.8 mph - 0.00 in Snow Light Snow
6:16 AM 26.6 °F 14.7 °F 24.8 °F 93% 29.57 in 1.8 mi North 15.0 mph - 0.00 in Snow Light Snow
6:24 AM 26.6 °F 14.3 °F 24.8 °F 93% 29.57 in 2.0 mi North 16.1 mph - 0.00 in Snow Light Snow
6:26 AM 26.6 °F 15.7 °F 24.8 °F 93% 29.57 in 1.5 mi North 12.7 mph - 0.00 in Snow Light Snow
6:32 AM 26.6 °F 14.7 °F 24.8 °F 93% 29.57 in 0.8 mi North 15.0 mph - 0.00 in Snow Light Snow
6:53 AM 27.0 °F 14.7 °F 25.0 °F 92% 29.61 in 0.5 mi North 16.1 mph - 0.00 in Fog , Snow Snow
7:53 AM 28.0 °F 16.5 °F 26.1 °F 92% 29.62 in 1.0 mi North 15.0 mph - 0.01 in Snow Light Snow
8:01 AM 28.4 °F 17.0 °F 26.6 °F 93% 29.58 in 1.8 mi North 15.0 mph - 0.00 in Snow Light Snow
8:04 AM 28.4 °F 17.5 °F 26.6 °F 93% 29.58 in 3.0 mi North 13.8 mph - 0.00 in Snow Light Snow
8:12 AM 28.4 °F 17.5 °F 26.6 °F 93% 29.58 in 9.0 mi North 13.8 mph - 0.00 in   Overcast
8:53 AM 28.9 °F 18.2 °F 26.1 °F 89% 29.62 in 10.0 mi North 13.8 mph 21.9 mph 0.00 in   Overcast
9:53 AM 30.9 °F 20.2 °F 27.0 °F 85% 29.62 in 10.0 mi NNW 15.0 mph 21.9 mph 0.00 in Snow Light Snow
10:25 AM 30.2 °F 18.9 °F 26.6 °F 86% 29.58 in 2.5 mi North 16.1 mph 23.0 mph 0.00 in Snow Light Snow
10:31 AM 30.2 °F 18.5 °F 28.4 °F 93% 29.59 in 1.8 mi North 17.3 mph - 0.00 in Snow Light Snow
10:41 AM 32.0 °F 20.5 °F 28.4 °F 87% 29.59 in 2.5 mi NNW 18.4 mph 24.2 mph 0.00 in Snow Light Snow
10:51 AM 32.0 °F 20.8 °F 28.4 °F 87% 29.59 in 1.5 mi NNW 17.3 mph 25.3 mph 0.00 in Snow Light Snow
10:53 AM 32.0 °F 21.6 °F 28.9 °F 88% 29.62 in 1.2 mi NNW 15.0 mph 25.3 mph 0.00 in Snow Light Snow
11:01 AM 32.0 °F 21.2 °F 28.4 °F 87% 29.59 in 1.8 mi NNW 16.1 mph 21.9 mph 0.00 in Snow Light Snow
11:10 AM 32.0 °F 21.2 °F 28.4 °F 87% 29.59 in 1.2 mi North 16.1 mph 24.2 mph 0.00 in Snow Light Snow
11:24 AM 32.0 °F 20.5 °F 28.4 °F 87% 29.59 in 0.8 mi NNW 18.4 mph 21.9 mph 0.00 in Snow Light Snow
11:53 AM 32.0 °F 23.0 °F 28.9 °F 88% 29.62 in 1.2 mi NNW 11.5 mph 20.7 mph 0.00 in Snow Light Snow
12:00 PM 32.0 °F 22.1 °F 30.2 °F 93% 29.59 in 1.2 mi North 13.8 mph 19.6 mph 0.00 in Snow Light Snow
12:25 PM 32.0 °F 22.1 °F 30.2 °F 93% 29.59 in 0.8 mi NNW 13.8 mph 23.0 mph 0.00 in Snow Light Snow
12:30 PM 32.0 °F 22.1 °F 30.2 °F 93% 29.59 in 1.0 mi North 13.8 mph 20.7 mph 0.00 in Snow Light Snow
12:34 PM 32.0 °F 22.1 °F 30.2 °F 93% 29.59 in 0.8 mi North 13.8 mph 20.7 mph 0.00 in Snow Light Snow
12:41 PM 32.0 °F 22.5 °F 30.2 °F 93% 29.59 in 1.0 mi NNW 12.7 mph 20.7 mph 0.00 in Snow Light Snow
12:53 PM 32.0 °F 22.5 °F 30.0 °F 92% 29.62 in 1.8 mi NNW 12.7 mph - 0.00 in Snow Light Snow
12:58 PM 32.0 °F 22.5 °F 30.2 °F 93% 29.59 in 3.0 mi North 12.7 mph 21.9 mph 0.00 in Snow Light Snow
1:05 PM 33.8 °F 23.2 °F 30.2 °F 87% 29.59 in 6.0 mi NNW 17.3 mph 24.2 mph 0.00 in   Overcast
1:53 PM 33.1 °F 22.2 °F 28.9 °F 85% 29.62 in 10.0 mi North 17.3 mph 24.2 mph 0.00 in   Overcast
2:44 PM 33.8 °F 23.2 °F 28.4 °F 81% 29.59 in 10.0 mi NNW 17.3 mph 23.0 mph N/A   Overcast
2:53 PM 33.1 °F 23.4 °F 30.0 °F 89% 29.62 in 10.0 mi North 13.8 mph 19.6 mph N/A   Overcast
3:07 PM 33.8 °F 23.9 °F 28.4 °F 81% 29.59 in 10.0 mi North 15.0 mph 23.0 mph N/A   Overcast
3:53 PM 33.1 °F 22.2 °F 28.9 °F 85% 29.63 in 10.0 mi North 17.3 mph - N/A   Overcast
4:53 PM 32.0 °F 22.1 °F 28.9 °F 88% 29.64 in 8.0 mi North 13.8 mph 20.7 mph N/A   Overcast
5:53 PM 32.0 °F 21.6 °F 28.9 °F 88% 29.65 in 10.0 mi North 15.0 mph - N/A   Overcast
6:53 PM 32.0 °F 23.0 °F 28.9 °F 88% 29.66 in 10.0 mi North 11.5 mph - N/A   Overcast
7:53 PM 32.0 °F 23.0 °F 28.4 °F 87% 29.63 in 10.0 mi North 11.5 mph - N/A   Overcast
8:53 PM 32.0 °F 23.0 °F 28.9 °F 88% 29.65 in 10.0 mi North 11.5 mph - N/A   Overcast
9:53 PM 32.0 °F 23.0 °F 28.9 °F 88% 29.63 in 10.0 mi North 11.5 mph - N/A   Overcast
10:53 PM 32.0 °F 22.5 °F 28.9 °F 88% 29.61 in 10.0 mi North 12.7 mph - N/A   Overcast
11:53 PM 32.0 °F 23.6 °F 28.9 °F 88% 29.61 in 10.0 mi North 10.4 mph - N/A   Overcast